AAL5440 KDCA-KSDF

Flight info

Callsign AAL5440
Flight time N/A
Altitude 38000
Route REBLL5 OTTTO Q68 YOCKY LEDDL1
Aircraft B738/M-SDE2E3FGHIRWXY/LB1

Departure

Time 2026-04-30 22:26
Airport Ronald Reagan Washington National Airport (KDCA)

Arrival

Time N/A
Airport Louisville Muhammad Ali International Airport (KSDF)
Time Latitude Longitude Altitude Speed Heading
2026-04-30 22:03 38.85349 -77.04196 24 ft 0 kts 317°
2026-04-30 22:17 38.85347 -77.04194 24 ft 2 kts 322°
2026-04-30 22:17 38.85340 -77.04189 29 ft 2 kts 335°
2026-04-30 22:17 38.85311 -77.04177 29 ft 3 kts 26°
2026-04-30 22:18 38.85298 -77.04192 29 ft 3 kts 65°
2026-04-30 22:18 38.85292 -77.04210 29 ft 0 kts 74°
2026-04-30 22:20 38.85293 -77.04208 30 ft 1 kts 74°
2026-04-30 22:21 38.85305 -77.04157 25 ft 9 kts 73°
2026-04-30 22:21 38.85322 -77.04083 24 ft 5 kts 72°
2026-04-30 22:21 38.85323 -77.04080 24 ft 0 kts 72°
2026-04-30 22:21 38.85323 -77.04079 24 ft 1 kts 72°
2026-04-30 22:22 38.85334 -77.04036 23 ft 10 kts 73°
2026-04-30 22:22 38.85324 -77.03938 21 ft 12 kts 147°
2026-04-30 22:22 38.85237 -77.03925 23 ft 15 kts 175°
2026-04-30 22:22 38.85099 -77.03911 21 ft 25 kts 175°
2026-04-30 22:23 38.84902 -77.03891 19 ft 30 kts 175°
2026-04-30 22:23 38.84695 -77.03871 24 ft 29 kts 175°
2026-04-30 22:23 38.84502 -77.03851 23 ft 27 kts 175°
2026-04-30 22:23 38.84321 -77.03834 26 ft 25 kts 176°
2026-04-30 22:24 38.84223 -77.03784 24 ft 0 kts 125°
2026-04-30 22:24 38.84221 -77.03779 23 ft 2 kts 124°
2026-04-30 22:24 38.84206 -77.03749 25 ft 9 kts 123°
2026-04-30 22:24 38.84219 -77.03677 22 ft 10 kts
2026-04-30 22:25 38.84290 -77.03688 21 ft 11 kts 356°
2026-04-30 22:25 38.84439 -77.03704 23 ft 49 kts 354°
2026-04-30 22:25 38.85047 -77.03766 23 ft 122 kts 355°
2026-04-30 22:25 38.86089 -77.03854 174 ft 169 kts 353°
2026-04-30 22:26 38.88486 -77.05060 1044 ft 213 kts 314°
2026-04-30 22:26 38.89565 -77.06426 1592 ft 226 kts 314°
2026-04-30 22:26 38.90473 -77.08003 2555 ft 218 kts 298°
2026-04-30 22:27 38.91181 -77.09738 3366 ft 221 kts 298°
2026-04-30 22:27 38.92161 -77.11322 3892 ft 241 kts 326°
2026-04-30 22:27 38.95134 -77.13490 5670 ft 250 kts 326°
2026-04-30 22:28 38.97094 -77.17070 7454 ft 254 kts 284°
2026-04-30 22:28 38.97454 -77.19308 8382 ft 256 kts 280°
2026-04-30 22:29 38.98418 -77.26279 10532 ft 285 kts 276°
2026-04-30 22:29 38.98236 -77.28922 10729 ft 311 kts 255°
2026-04-30 22:30 38.94604 -77.40274 12961 ft 352 kts 249°
2026-04-30 22:31 38.91769 -77.49037 15115 ft 359 kts 249°
2026-04-30 22:32 38.88914 -77.57983 17092 ft 365 kts 252°
2026-04-30 22:32 38.87883 -77.64397 18361 ft 368 kts 261°
2026-04-30 22:33 38.86578 -77.74214 20000 ft 375 kts 261°
2026-04-30 22:33 38.85641 -77.80806 21001 ft 380 kts 260°
2026-04-30 22:34 38.84457 -77.90939 22439 ft 387 kts 270°
2026-04-30 22:35 38.84722 -77.97862 23480 ft 389 kts 272°
2026-04-30 22:36 38.85171 -78.11879 24901 ft 399 kts 271°
2026-04-30 22:36 38.85266 -78.15466 25134 ft 402 kts 271°
2026-04-30 22:37 38.85431 -78.26308 26133 ft 407 kts 269°
2026-04-30 22:37 38.85414 -78.29939 26472 ft 408 kts 269°
2026-04-30 22:37 38.85335 -78.37216 26991 ft 413 kts 266°
2026-04-30 22:38 38.84264 -78.44494 27654 ft 415 kts 259°
2026-04-30 22:38 38.83043 -78.51712 28462 ft 412 kts 259°
2026-04-30 22:39 38.82452 -78.55265 28839 ft 411 kts 259°
2026-04-30 22:39 38.80672 -78.66001 30023 ft 408 kts 259°
2026-04-30 22:40 38.78915 -78.76529 31185 ft 400 kts 260°
2026-04-30 22:41 38.77158 -78.87003 32063 ft 399 kts 260°
2026-04-30 22:41 38.75987 -78.93945 32745 ft 397 kts 260°
2026-04-30 22:42 38.73659 -79.07668 34077 ft 391 kts 261°
2026-04-30 22:43 38.72509 -79.14399 34656 ft 388 kts 261°
2026-04-30 22:43 38.71353 -79.21181 34957 ft 391 kts 261°
2026-04-30 22:44 38.70200 -79.27980 35473 ft 389 kts 261°
2026-04-30 22:45 38.67994 -79.41531 36227 ft 389 kts 261°
2026-04-30 22:45 38.66879 -79.48315 36696 ft 387 kts 261°
2026-04-30 22:46 38.65764 -79.55067 37066 ft 388 kts 261°
2026-04-30 22:47 38.63544 -79.68430 37937 ft 382 kts 261°
2026-04-30 22:48 38.61164 -79.81709 38017 ft 387 kts 260°
2026-04-30 22:49 38.57480 -80.01874 38025 ft 389 kts 260°
2026-04-30 22:51 38.55837 -80.22173 38024 ft 382 kts 274°
2026-04-30 22:52 38.56375 -80.32278 38020 ft 380 kts 274°
2026-04-30 22:53 38.57050 -80.45736 38033 ft 380 kts 274°
2026-04-30 22:53 38.57548 -80.55882 38016 ft 380 kts 274°
2026-04-30 22:55 38.55635 -80.72536 38025 ft 383 kts 259°
2026-04-30 22:56 38.53058 -80.85728 37986 ft 381 kts 260°
2026-04-30 22:57 38.49912 -81.01902 38025 ft 374 kts 261°
2026-04-30 22:58 38.47401 -81.14743 38034 ft 372 kts 260°
2026-04-30 22:59 38.43618 -81.33930 38037 ft 371 kts 260°